GW6347 Weather Reports


time (UTC)temp
F
wind
direction
speed
knots
gust
knots
rain 1hr
in
rain 24hr
in
rain mn
in
humidity
%
barometer
mb
20260510203004 81 119 5.2 9.6 0.00 0.13 0.00 70 1015.7
20260510201508 82 92 5.2 9.6 0.00 0.14 0.00 64 1015.4
20260510200011 81 115 5.2 10.4 0.00 0.18 0.00 69 1015.2
20260510194511 81 145 5.2 9.6 0.00 0.21 0.00 70 1015.3
20260510193005 82 155 4.3 14.8 0.00 0.26 0.00 70 1015.4
20260510191508 82 176 3.5 9.6 0.00 0.32 0.00 70 1015.5
20260510190008 81 138 5.2 11.3 0.00 0.37 0.00 69 1015.7
20260510184519 82 118 3.5 9.6 0.00 0.45 0.00 71 1015.7
20260510183012 81 146 5.2 11.3 0.00 0.48 0.00 70 1015.9
20260510181506 81 107 3.5 9.6 0.00 0.51 0.00 71 1016.0
20260510180007 82 121 3.5 8.7 0.00 0.56 0.00 72 1016.1
20260510174512 84 113 2.6 6.1 0.00 0.61 0.00 67 1016.3
20260510173009 83 193 2.6 7.8 0.00 0.72 0.00 68 1016.4
20260510171519 83 142 0.9 7.0 0.00 0.75 0.00 69 1016.5
20260510170008 83 44 2.6 7.0 0.00 0.95 0.00 67 1016.6
20260510164510 82 88 0.9 5.2 0.00 0.97 0.00 71 1016.8
20260510163015 81 59 0.9 7.0 0.00 0.99 0.00 75 1016.9
20260510161511 80 106 0.9 5.2 0.00 1.04 0.00 76 1016.8
20260510160011 79 30 1.7 5.2 0.00 1.08 0.00 77 1016.7
20260510154523 79 226 0.9 4.3 0.00 1.11 0.00 78 1016.6
20260510153022 78 38 1.7 7.0 0.00 1.16 0.00 79 1016.6
20260510151510 77 115 0.9 5.2 0.00 1.25 0.00 81 1016.5
20260510150006 76 130 0.9 4.3 0.00 1.37 0.00 84 1016.8
20260510144512 73 165 0.9 2.6 0.00 1.46 0.00 89 1016.9
20260510143013 72 46 1.7 4.3 0.00 1.56 0.00 92 1017.0
20260510141517 70 103 2.6 6.1 0.00 1.59 0.00 97 1017.0
20260510140006 70 173 0.0 2.6 0.00 1.61 0.00 99 1016.9
20260510134509 69 68 0.9 4.3 0.00 1.65 0.00 99 1016.7
20260510133012 68 92 2.6 4.3 0.00 1.73 0.00 99 1016.6
20260510131516 67 55 1.7 3.5 0.00 1.98 0.00 99 1016.4
20260510130018 67 67 1.7 3.5 0.00 2.55 0.00 99 1016.3
20260510124507 66 37 0.9 4.3 0.00 2.88 0.00 99 1016.2
20260510123020 66 57 0.9 2.6 0.00 2.88 0.00 99 1016.1
20260510121512 66 57 0.0 0.0 0.00 2.88 0.00 99 1016.0
20260510120018 65 70 0.0 0.9 0.00 2.88 0.00 99 1015.6
20260510114508 65 57 0.9 2.6 0.00 2.88 0.00 99 1015.1
20260510113007 65 109 0.0 3.5 0.00 2.88 0.00 99 1014.8
20260510111512 65 97 0.9 2.6 0.00 2.88 0.00 99 1014.4
20260510110028 65 54 0.9 2.6 0.00 2.88 0.00 99 1014.3
20260510104521 65 40 0.0 2.6 0.00 2.88 0.00 99 1013.9
20260510103004 65 70 0.9 3.5 0.00 2.88 0.00 99 1013.7
20260510101511 65 64 0.0 1.7 0.00 2.88 0.00 99 1013.5
20260510100013 65 31 0.9 3.5 0.00 2.88 0.00 99 1013.4
20260510094534 65 65 0.0 3.5 0.00 2.88 0.00 99 1013.4
20260510093023 65 352 1.7 3.5 0.00 2.96 0.00 99 1013.3
20260510091507 65 13 4.3 8.7 0.00 3.67 0.00 99 1013.3
20260510090011 65 302 0.9 4.3 0.00 4.86 0.00 99 1013.2
20260510084517 66 42 1.7 1.7 0.00 4.88 0.00 99 1013.2
20260510083023 66 70 0.0 0.0 0.00 4.88 0.00 99 1013.0
20260510081529 66 74 0.0 0.9 0.00 4.88 0.00 99 1013.0
20260510080038 66 66 0.0 2.6 0.00 4.88 0.00 99 1012.8
20260510074513 66 45 0.9 3.5 0.00 4.88 0.00 99 1012.8
20260510073033 66 88 1.7 3.5 0.00 4.88 0.00 99 1012.7
20260510071523 66 23 1.7 6.1 0.00 4.88 0.00 99 1012.7
20260510070008 67 10 0.9 3.5 0.00 4.88 0.00 98 1012.9
20260510064512 67 46 0.9 2.6 0.00 4.88 0.00 98 1012.8
20260510063019 67 27 0.0 1.7 0.00 4.88 0.00 98 1012.8
20260510061504 67 5 1.7 3.5 0.00 4.88 0.00 98 1012.9
20260510060018 67 5 0.0 1.7 0.00 4.88 0.00 98 1013.1
20260510054517 67 98 2.6 3.5 0.00 4.88 0.00 98 1012.9
20260510053000 67 38 0.0 0.0 0.00 4.88 0.00 98 1013.0
20260510051504 67 37 0.0 0.0 0.00 4.88 0.00 98 1013.2
20260510050004 68 101 0.0 2.6 0.00 4.88 0.00 98 1013.0
20260510044510 68 132 0.0 0.0 0.00 4.88 4.88 98 1013.0
20260510043029 68 143 0.0 0.0 0.00 4.88 4.88 98 1013.1
20260510041501 68 59 0.0 2.6 0.00 4.88 4.88 98 1012.8
20260510040010 68 74 0.0 0.0 0.00 4.88 4.88 98 1013.3
20260510034508 68 348 0.0 2.6 0.00 4.88 4.88 98 1013.7
20260510033012 68 360 0.9 1.7 0.00 4.88 4.88 98 1013.6
20260510031530 69 72 0.0 1.7 0.00 4.88 4.88 98 1013.5
20260510030006 69 139 0.0 0.0 0.01 4.88 4.88 98 1013.6
20260510024507 69 326 0.0 3.5 0.01 4.88 4.88 98 1013.6
20260510023007 69 277 0.9 3.5 0.02 4.88 4.88 98 1013.3
20260510021527 69 195 0.9 4.3 0.02 4.88 4.88 98 1012.7
20260510020003 69 158 1.7 5.2 0.01 4.87 4.87 98 1012.2
20260510014512 69 154 1.7 4.3 0.02 4.87 4.87 98 1012.0
20260510013006 69 9 0.0 3.5 0.01 4.86 4.86 98 1012.8
20260510011516 69 301 0.0 3.5 0.02 4.86 4.86 98 1012.5
20260510010032 69 146 0.9 2.6 0.03 4.86 4.86 98 1012.2
20260510004505 68 154 0.9 2.6 0.03 4.85 4.85 98 1012.2
20260510003004 68 157 1.7 4.3 0.05 4.85 4.85 98 1012.2
20260510001511 68 163 0.9 2.6 0.05 4.86 4.84 98 1012.3
20260510000017 68 132 0.0 0.0 0.04 4.88 4.83 98 1012.5
20260509234523 68 84 0.0 1.7 0.04 4.90 4.82 98 1012.8
20260509233006 68 180 0.9 1.7 0.02 4.88 4.80 98 1013.0
20260509231506 68 121 0.0 0.0 0.02 4.88 4.79 98 1012.8
20260509230023 68 226 0.0 1.7 0.02 4.90 4.79 97 1012.2
20260509224521 68 92 0.0 0.0 0.01 4.90 4.78 97 1011.6
20260509223005 68 84 0.9 3.5 0.01 4.90 4.78 97 1011.4
20260509221507 68 186 1.7 4.3 0.00 4.89 4.77 97 1012.0
20260509220011 68 205 0.0 1.7 0.00 4.90 4.77 97 1012.2
20260509214520 68 190 0.9 2.6 0.01 4.92 4.77 98 1012.2
20260509213028 68 200 0.0 4.3 0.02 4.98 4.77 98 1011.2
20260509211505 68 106 0.9 4.3 0.03 5.08 4.77 98 1010.8
20260509210010 68 139 1.7 6.1 0.07 5.28 4.77 98 1010.7
20260509204513 68 113 0.9 3.5 0.09 5.43 4.76 98 1011.1